Burlington, NC

1:21 AM EST on December 09, 2016 (GMT -0500)
Burlington-Alamance Regional

Weather History for KBUY - February, 2014

Change the Weather History Date:

Thursday, February 27, 2014

  Actual Average Record
Temperature  
Mean Temperature 37 °F -  
Max Temperature 53 °F 53 °F 83 °F (1977)
Min Temperature 21 °F 30 °F 9 °F (1963)
Degree Days  
Heating Degree Days 28    
Moisture  
Dew Point 8 °F    
Average Humidity 34    
Maximum Humidity 72    
Minimum Humidity 10    
Precipitation  
Precipitation 0.00 in - - ()
Sea Level Pressure  
Sea Level Pressure 29.84 in    
Wind  
Wind Speed 6 mph (West)    
Max Wind Speed 16 mph    
Max Gust Speed 29 mph    
Visibility 10 miles    
Events      
Averages and records for this station are not official NWS values.
T = Trace of Precipitation, MM = Missing Value Source: NWS Daily Summary

Daily Weather History Graph

Daily Weather History Graph

Search for Another Location

Airport or City:

Trip Planner

Search our weather history database for the weather conditions in past years. The results will help you decide how hot, cold, wet, or windy it might be!

Date:

Astronomy

Feb. 27, 2014 Rise Set
Actual Time 6:50 AM EST 6:10 PM EST
Civil Twilight 6:24 AM EST 6:36 PM EST
Nautical Twilight 5:55 AM EST 7:06 PM EST
Astronomical Twilight 5:25 AM EST 7:36 PM EST
Moon 5:19 AM EST (2/27) 4:36 PM EST (2/27)
Length of Visible Light 12h 11m
Length of Day
11h 20m
Waning Crescent, 4% of the Moon is Illuminated
Feb 27
Waning Crescent
Mar 1
New
Mar 8
First Quarter
Mar 16
Full
Mar 23
Last Quarter

Hourly Weather History & Observations

Time (EST) Temp. Windchill Dew Point Humidity Pressure Visibility Wind Dir Wind Speed Gust Speed Precip Events Conditions
12:54 AM 28.9 °F 25.2 °F 10.0 °F 45% 29.86 in 10.0 mi North 3.5 mph - N/A   Clear
1:54 AM 28.9 °F - 10.9 °F 47% 29.86 in 10.0 mi Calm Calm - N/A   Clear
2:54 AM 27.0 °F - 12.0 °F 53% 29.85 in 10.0 mi Calm Calm - N/A   Clear
3:54 AM 27.0 °F - 12.0 °F 53% 29.83 in 10.0 mi Calm Calm - N/A   Clear
4:54 AM 24.1 °F 19.7 °F 12.9 °F 62% 29.83 in 10.0 mi SW 3.5 mph - N/A   Clear
5:54 AM 21.9 °F 17.2 °F 14.0 °F 72% 29.82 in 10.0 mi South 3.5 mph - N/A   Clear
6:54 AM 21.9 °F - 14.0 °F 72% 29.83 in 10.0 mi Calm Calm - N/A   Clear
7:54 AM 26.1 °F - 18.0 °F 71% 29.84 in 10.0 mi Calm Calm - N/A   Clear
8:54 AM 33.1 °F 27.7 °F 16.0 °F 50% 29.85 in 10.0 mi SW 5.8 mph - N/A   Clear
9:54 AM 39.0 °F 31.4 °F 12.9 °F 34% 29.83 in 10.0 mi WSW 12.7 mph - N/A   Clear
10:54 AM 42.1 °F 35.2 °F 12.0 °F 29% 29.82 in 10.0 mi WSW 12.7 mph - N/A   Clear
11:54 AM 46.0 °F 39.6 °F 10.9 °F 24% 29.81 in 10.0 mi WSW 15.0 mph 21.9 mph N/A   Clear
12:54 PM 48.9 °F - 8.1 °F 19% 29.78 in 10.0 mi West 13.8 mph 21.9 mph N/A   Clear
1:54 PM 50.0 °F - 5.0 °F 16% 29.75 in 10.0 mi WSW 16.1 mph 28.8 mph N/A   Clear
2:54 PM 52.0 °F - 3.9 °F 14% 29.76 in 10.0 mi WSW 15.0 mph 27.6 mph N/A   Clear
3:54 PM 52.0 °F - 3.0 °F 14% 29.76 in 10.0 mi West 13.8 mph 20.7 mph N/A   Clear
4:54 PM 53.1 °F - -2.0 °F 10% 29.78 in 10.0 mi West 13.8 mph 20.7 mph N/A   Clear
5:54 PM 50.0 °F - -0.0 °F 13% 29.81 in 10.0 mi WNW 8.1 mph - N/A   Clear
6:54 PM 45.0 °F 41.2 °F 1.0 °F 16% 29.86 in 10.0 mi NNW 6.9 mph - N/A   Clear
7:54 PM 42.1 °F 37.1 °F 1.0 °F 18% 29.88 in 10.0 mi NW 8.1 mph - N/A   Clear
8:54 PM 42.1 °F 37.1 °F 1.9 °F 19% 29.91 in 10.0 mi WNW 8.1 mph - N/A   Clear
9:54 PM 39.9 °F 33.4 °F 3.0 °F 21% 29.95 in 10.0 mi North 10.4 mph - N/A   Clear
10:54 PM 37.0 °F 29.3 °F 3.9 °F 25% 29.99 in 10.0 mi North 11.5 mph 17.3 mph N/A   Clear
11:54 PM 34.0 °F 28.0 °F 5.0 °F 30% 30.00 in 10.0 mi North 6.9 mph - N/A   Clear